Overview Statistics Trail Chart Weather Telemetry Raw packets
 

This is the latest recevied weather packets stored in our database for station/object OE6JUE. If no packets are shown the sender has not sent any weather packets the latest 10 day(s).

<< 66 67 68 69 70 71 72 >>
Time Temp. Humidity Pressure Rain* Wind** Luminosity Snow
1788218622 16.11° C 99% 1021.5 hPa 0 mm - - -
1788218321 16.11° C 99% 1021.3 hPa 0 mm - - -
1788218021 16.11° C 99% 1021.2 hPa 0 mm - - -
1788217721 16.11° C 99% 1021.3 hPa 0 mm - - -
1788217421 16.11° C 99% 1021.3 hPa 0 mm - - -
1788217122 16.67° C 99% 1021.7 hPa 0 mm - - -
1788216821 16.67° C 99% 1021.7 hPa 0 mm - - -
1788216521 16.67° C 99% 1021.8 hPa 0 mm - - -
1788216221 16.67° C 99% 1021.9 hPa 0 mm - - -
1788215921 16.67° C 99% 1021.9 hPa 0.25 mm - - -
1788215621 16.67° C 99% 1021.9 hPa 0.25 mm - - -
1788215321 16.67° C 99% 1021.9 hPa 0.25 mm - - -
1788215021 16.67° C 99% 1021.7 hPa 0.51 mm - - -
1788214722 16.67° C 99% 1021.8 hPa 0.51 mm - - -
1788214421 16.67° C 99% 1021.8 hPa 0.51 mm - - -
1788214122 16.67° C 99% 1021.6 hPa 0.51 mm - - -
1788213821 16.67° C 99% 1021.6 hPa 0.51 mm - - -
1788213521 16.67° C 99% 1021.1 hPa 1.27 mm - - -
1788213222 16.67° C 99% 1021.3 hPa 1.52 mm - - -
1788212922 16.67° C 99% 1021.3 hPa 2.03 mm - - -
1788212622 16.67° C 98% 1021.8 hPa 2.29 mm - - -
1788212321 16.67° C 98% 1021.9 hPa 3.56 mm - - -
1788212021 16.67° C 98% 1021.7 hPa 4.32 mm - - -
1788211721 16.67° C 97% 1021.3 hPa 4.32 mm - - -
1788211421 16.67° C 97% 1021.2 hPa 5.59 mm - - -

* Rain latest hour (hover to see other rain measurements)
** Current wind speed in m/s (hover to see current wind gust speed)